Tracking 27111 objects as of 28-Mar-2023
HD Live streaming from Space Station
objects crossing your sky now

STARLINK-30046

Track STARLINK-30046 now!
10-day predictions
STARLINK-30046 is classified as:


NORAD ID: 55710
Int'l Code: 2023-026R
Perigee: 371.3 km
Apogee: 372.6 km
Inclination: 43.0 °
Period: 91.8 minutes
Semi major axis: 6742 km
RCS: Unknown
Launch date: February 27, 2023
Source: United States (US)
Launch site: AIR FORCE EASTERN TEST RANGE (AFETR)
Your satellite tracking list
Your tracking list is empty




NASA's NSSDC Master Catalog

Two Line Element Set (TLE):
1 55710U 23026R   23087.28402897  .00084188  00000-0  73622-3 0  9993
2 55710  43.0027 114.0832 0000926 299.3153  60.7621 15.67940136  5463
Source of the keplerian elements: AFSPC